sat.trackr.live / text

‹ back to catalog

STARLINK-35319

NORAD 65743 · 2025-216K

PAYLOAD ACTIVE UNKNOWN

§ Identity

Operator
Country
US
Launch date
2025-09-25
Launch site
AFETR
Launch vehicle
Mass (kg)
RCS (m²)

Purposes: comms

External: N2YO · Heavens-Above · Gunter

§ Orbital elements

Epoch: 2026-09-20T09:22:28.100928Z

Period
93.85 min
Inclination
53.1572°
Eccentricity
0.0001179
Mean motion
15.34401222 rev/d
Perigee alt
461.9 km
Apogee alt
463.5 km
Semi-major
6,840.8 km
B*
3.7062e-4
RAAN
146.3670°
Arg perigee
93.5017°
Mean anomaly
266.6121°
Rev number
5,643

§ Raw data

STARLINK-353191 65743U 25216K   26263.39060302  .00012166  00000+0  37062-3 0  99992 65743  53.1572 146.3670 0001179  93.5017 266.6121 15.34401222 56436

JSON: /api/v1/satellites/65743 · /tle

For live sub-satellite position, see the globe view (requires WebGL).

§ Visibility from observer

Set your observer location to see the next 7 days of passes ≥ 10°. The values pass through the URL so the page stays shareable.

No JS? Fill the form by hand. The geolocation button needs JavaScript.